When you browse on this site, cookies collect data to enhance your experience and personalize the content and advertising you see.
Visit our Privacy Policy to learn more. By continuing to use the site, you agree to this use of cookies and data.
  • In Österreich
  • Länderverzeichnis
  • Für 7 Tage
  • Wassertemperatur
  • Satellitenkarten
  • Wetterkarte
  • News
  • Widgets
  • user-avatar
    Anmelden

    Stündliche Wetter Bezha

    Heute, 22 Mai, Mittwoch

    Zeit Temperatur Niederschläge Wind Luftdruck Luftfeuchtigkeit
    00:00 +14°C° 0 mm 2 m/S 741 mmHg 87%
    01:00 +13°C° 0 mm 2 m/S 741 mmHg 89%
    02:00 +13°C° 0 mm 1 m/S 741 mmHg 90%
    03:00 +13°C° 0 mm 1 m/S 741 mmHg 90%
    04:00 +13°C° 0 mm 1 m/S 741 mmHg 89%
    05:00 +14°C° 0 mm 1 m/S 741 mmHg 85%
    06:00 +18°C° 0 mm 1 m/S 741 mmHg 74%
    07:00 +20°C° 0 mm 1 m/S 742 mmHg 64%
    08:00 +23°C° 0 mm 1 m/S 742 mmHg 54%
    09:00 +25°C° 0 mm 1 m/S 742 mmHg 46%
    10:00 +25°C° 0 mm 0 m/S 742 mmHg 39%
    11:00 +28°C° 0 mm 0 m/S 742 mmHg 31%
    12:00 +29°C° 0 mm 0 m/S 742 mmHg 29%
    13:00 +31°C° 0 mm 1 m/S 742 mmHg 26%
    14:00 +32°C° 0 mm 1 m/S 742 mmHg 24%
    15:00 +31°C° 0 mm 2 m/S 742 mmHg 26%
    16:00 +30°C° 0 mm 3 m/S 741 mmHg 28%
    17:00 +29°C° 0 mm 4 m/S 741 mmHg 29%
    18:00 +27°C° 0 mm 4 m/S 742 mmHg 37%
    19:00 +23°C° 0 mm 5 m/S 742 mmHg 45%
    20:00 +20°C° 0 mm 5 m/S 742 mmHg 52%
    21:00 +19°C° 0 mm 4 m/S 742 mmHg 56%
    22:00 +18°C° 0 mm 3 m/S 742 mmHg 60%
    23:00 +17°C° 0 mm 2 m/S 742 mmHg 63%

    Morgen, 23 Mai, Donnerstag

    Zeit Temperatur Niederschläge Wind Luftdruck Luftfeuchtigkeit
    00:00 +16°C° 0 mm 2 m/S 742 mmHg 66%
    01:00 +15°C° 0 mm 2 m/S 742 mmHg 69%
    02:00 +14°C° 0 mm 2 m/S 742 mmHg 71%
    03:00 +14°C° 0 mm 2 m/S 742 mmHg 73%
    04:00 +14°C° 0 mm 2 m/S 742 mmHg 74%
    05:00 +13°C° 0 mm 2 m/S 742 mmHg 76%
    06:00 +16°C° 0 mm 2 m/S 742 mmHg 64%
    07:00 +19°C° 0 mm 3 m/S 743 mmHg 53%
    08:00 +21°C° 0 mm 3 m/S 743 mmHg 42%
    09:00 +25°C° 0 mm 3 m/S 743 mmHg 35%
    10:00 +27°C° 0 mm 4 m/S 743 mmHg 29%
    11:00 +29°C° 0 mm 4 m/S 743 mmHg 22%
    12:00 +30°C° 0 mm 4 m/S 743 mmHg 21%
    13:00 +32°C° 0 mm 4 m/S 742 mmHg 19%
    14:00 +33°C° 0 mm 4 m/S 742 mmHg 17%
    15:00 +30°C° 0 mm 5 m/S 742 mmHg 23%
    16:00 +29°C° 0 mm 6 m/S 742 mmHg 30%
    17:00 +28°C° 0 mm 7 m/S 742 mmHg 36%
    18:00 +26°C° 0 mm 6 m/S 742 mmHg 43%
    19:00 +22°C° 0 mm 6 m/S 742 mmHg 51%
    20:00 +20°C° 0 mm 6 m/S 742 mmHg 58%
    21:00 +17°C° 0 mm 5 m/S 742 mmHg 60%
    22:00 +16°C° 0 mm 5 m/S 742 mmHg 62%
    23:00 +14°C° 0 mm 5 m/S 742 mmHg 64%

    übermorgen, 24 Mai, Freitag

    Zeit Temperatur Niederschläge Wind Luftdruck Luftfeuchtigkeit
    00:00 +13°C° 0 mm 4 m/S 742 mmHg 66%
    01:00 +13°C° 0 mm 4 m/S 742 mmHg 68%
    02:00 +12°C° 0 mm 3 m/S 742 mmHg 70%
    03:00 +12°C° 0 mm 3 m/S 741 mmHg 71%
    04:00 +12°C° 0 mm 3 m/S 741 mmHg 73%
    05:00 +12°C° 0 mm 4 m/S 741 mmHg 74%
    06:00 +15°C° 0 mm 4 m/S 741 mmHg 66%
    07:00 +18°C° 0 mm 4 m/S 741 mmHg 57%
    08:00 +21°C° 0 mm 4 m/S 742 mmHg 49%
    09:00 +23°C° 0 mm 4 m/S 741 mmHg 41%
    10:00 +27°C° 0 mm 5 m/S 741 mmHg 33%
    11:00 +29°C° 0 mm 5 m/S 741 mmHg 25%
    12:00 +30°C° 0 mm 5 m/S 741 mmHg 24%
    13:00 +30°C° 0 mm 5 m/S 740 mmHg 24%
    14:00 +32°C° 0 mm 6 m/S 740 mmHg 23%
    15:00 +32°C° 0 mm 6 m/S 739 mmHg 23%
    16:00 +30°C° 0 mm 6 m/S 739 mmHg 24%
    17:00 +30°C° 0 mm 6 m/S 739 mmHg 24%
    18:00 +27°C° 0 mm 6 m/S 739 mmHg 30%
    19:00 +24°C° 0 mm 6 m/S 739 mmHg 35%
    20:00 +21°C° 0 mm 6 m/S 740 mmHg 40%
    21:00 +20°C° 0 mm 6 m/S 740 mmHg 43%
    22:00 +19°C° 0 mm 5 m/S 740 mmHg 46%
    23:00 +17°C° 0 mm 5 m/S 740 mmHg 50%

    25 Mai, Samstag

    Zeit Temperatur Niederschläge Wind Luftdruck Luftfeuchtigkeit
    00:00 +17°C° 0 mm 5 m/S 740 mmHg 50%
    01:00 +18°C° 0 mm 4 m/S 739 mmHg 50%
    02:00 +17°C° 0 mm 4 m/S 739 mmHg 50%
    03:00 +17°C° 0 mm 4 m/S 739 mmHg 48%
    04:00 +17°C° 0 mm 4 m/S 739 mmHg 47%
    05:00 +17°C° 0 mm 4 m/S 740 mmHg 46%
    06:00 +19°C° 0 mm 5 m/S 740 mmHg 42%
    07:00 +21°C° 0 mm 5 m/S 741 mmHg 39%
    08:00 +23°C° 0 mm 6 m/S 742 mmHg 35%
    09:00 +26°C° 0 mm 6 m/S 742 mmHg 31%
    10:00 +27°C° 0 mm 5 m/S 742 mmHg 27%
    11:00 +29°C° 0 mm 5 m/S 742 mmHg 22%
    12:00 +29°C° 0 mm 5 m/S 741 mmHg 21%
    13:00 +30°C° 0 mm 5 m/S 741 mmHg 19%
    14:00 +32°C° 0 mm 5 m/S 741 mmHg 18%
    15:00 +30°C° 0 mm 5 m/S 741 mmHg 19%
    16:00 +30°C° 0 mm 5 m/S 741 mmHg 19%
    17:00 +29°C° 0 mm 5 m/S 741 mmHg 20%
    18:00 +27°C° 0 mm 4 m/S 741 mmHg 23%
    19:00 +25°C° 0 mm 3 m/S 741 mmHg 27%
    20:00 +22°C° 0 mm 3 m/S 742 mmHg 31%
    21:00 +21°C° 0 mm 3 m/S 742 mmHg 35%
    22:00 +20°C° 0 mm 3 m/S 741 mmHg 39%
    23:00 +19°C° 0 mm 3 m/S 741 mmHg 43%

    26 Mai, Sonntag

    Zeit Temperatur Niederschläge Wind Luftdruck Luftfeuchtigkeit
    00:00 +18°C° 0 mm 3 m/S 741 mmHg 44%
    01:00 +18°C° 0 mm 3 m/S 741 mmHg 45%
    02:00 +17°C° 0 mm 3 m/S 741 mmHg 46%
    03:00 +17°C° 0 mm 3 m/S 741 mmHg 46%
    04:00 +17°C° 0 mm 4 m/S 741 mmHg 46%
    05:00 +17°C° 0 mm 4 m/S 741 mmHg 45%
    06:00 +20°C° 0 mm 4 m/S 741 mmHg 41%
    07:00 +22°C° 0 mm 5 m/S 742 mmHg 37%
    08:00 +26°C° 0 mm 5 m/S 742 mmHg 33%
    09:00 +27°C° 0 mm 5 m/S 742 mmHg 29%
    10:00 +29°C° 0 mm 5 m/S 742 mmHg 25%
    11:00 +30°C° 0 mm 5 m/S 742 mmHg 21%
    12:00 +32°C° 0 mm 5 m/S 741 mmHg 20%
    13:00 +32°C° 0 mm 5 m/S 741 mmHg 19%
    14:00 +33°C° 0 mm 5 m/S 740 mmHg 18%
    15:00 +32°C° 0 mm 4 m/S 740 mmHg 18%
    16:00 +32°C° 0 mm 4 m/S 740 mmHg 19%
    17:00 +30°C° 0 mm 4 m/S 740 mmHg 20%
    18:00 +28°C° 0 mm 4 m/S 740 mmHg 22%
    19:00 +26°C° 0 mm 3 m/S 740 mmHg 25%
    20:00 +24°C° 0 mm 2 m/S 741 mmHg 28%
    21:00 +23°C° 0 mm 2 m/S 740 mmHg 31%
    22:00 +21°C° 0 mm 3 m/S 740 mmHg 34%
    23:00 +20°C° 0 mm 3 m/S 740 mmHg 38%

    27 Mai, Montag

    Zeit Temperatur Niederschläge Wind Luftdruck Luftfeuchtigkeit
    00:00 +19°C° 0 mm 3 m/S 740 mmHg 38%
    01:00 +19°C° 0 mm 3 m/S 740 mmHg 39%
    02:00 +18°C° 0 mm 2 m/S 739 mmHg 39%
    03:00 +18°C° 0 mm 2 m/S 739 mmHg 41%
    04:00 +17°C° 0 mm 2 m/S 739 mmHg 42%
    05:00 +17°C° 0 mm 2 m/S 739 mmHg 44%
    06:00 +20°C° 0 mm 2 m/S 740 mmHg 38%
    07:00 +24°C° 0 mm 2 m/S 740 mmHg 33%
    08:00 +27°C° 0 mm 3 m/S 740 mmHg 28%
    09:00 +28°C° 0 mm 3 m/S 740 mmHg 25%
    10:00 +30°C° 0 mm 3 m/S 740 mmHg 22%
    11:00 +33°C° 0 mm 3 m/S 740 mmHg 19%
    12:00 +34°C° 0 mm 3 m/S 739 mmHg 18%
    13:00 +35°C° 0 mm 3 m/S 739 mmHg 17%
    14:00 +35°C° 0 mm 4 m/S 739 mmHg 16%
    15:00 +35°C° 0 mm 4 m/S 738 mmHg 17%
    16:00 +35°C° 0 mm 4 m/S 738 mmHg 18%
    17:00 +34°C° 0 mm 4 m/S 738 mmHg 18%
    18:00 +32°C° 0 mm 4 m/S 738 mmHg 22%
    19:00 +28°C° 0 mm 3 m/S 738 mmHg 27%
    20:00 +26°C° 0 mm 3 m/S 739 mmHg 31%
    21:00 +24°C° 0 mm 3 m/S 739 mmHg 38%
    22:00 +22°C° 0 mm 3 m/S 738 mmHg 45%
    23:00 +21°C° 0 mm 3 m/S 738 mmHg 52%
    Mehr zeigen